This demonstration page uses our WeatherBlox Daily Observations layout. Learn more.

41.55636, -103.73856

Hourly Observations for April 4, 2019

Temp ( °F °C ) Dew Point ( °F °C ) Humidity (%) Winds ( mph kmh ) Pressure ( in mb ) Visibility ( mi km ) Precip ( " mm )
12:53 am 00:53 Mostly Cloudy with Mist and Fog 41 5 39 3.9 93 93 ESE 12 19 30 1016 5 8.04672 0 0
1:34 am 01:34 Mostly Cloudy with Mist and Fog 41 5 39 3.9 93 93 ESE 10 17 30.06 1018 4 6.437376 0 0
1:53 am 01:53 Mostly Clear with Mist and Fog 39 3.9 38 3.3 96 96 ESE 8 13 30 1016 3 4.828032 0 0
2:15 am 02:15 Clear with Mist and Fog 38 3.3 37 2.8 97 97 ESE 7 11 30.06 1018 2.5 4.02336 0 0
2:49 am 02:49 Clear with Mist and Fog 37 3 36 2 93 93 ESE 7 11 30.06 1018 1.75 2.816352 0 0
2:53 am 02:53 Clear with Mist and Fog 37 2.8 37 2.8 100 100 ESE 8 13 29.97 1015 2 3.218688 0 0
3:21 am 03:21 Clear with Mist and Fog 37 2.8 36 2.2 96 96 SE 9 15 30.06 1018 1.75 2.816352 0 0
3:53 am 03:53 Clear with Mist and Fog 36 2.2 36 2.2 100 100 ESE 7 11 29.97 1015 1.5 2.414016 0 0
4:28 am 04:28 Mostly Cloudy with Mist and Fog 36 2.2 36 2.2 100 100 ESE 8 13 30.06 1018 1 1.609344 0 0
4:38 am 04:38 Mostly Cloudy with Mist and Fog 36 2 36 2 100 100 ESE 8 13 30.09 1019 0.75 1.207008 0 0
4:51 am 04:51 Cloudy with Mist and Fog 36 2 36 2 100 100 E 7 11 30.09 1019 0.75 1.207008 0 0
4:53 am 04:53 Cloudy with Mist and Fog 36 2.2 36 2.2 100 100 E 7 11 30 1016 0.75 1.207008 0 0
5:07 am 05:07 Mostly Cloudy with Fog 37 2.8 37 2.8 100 100 ESE 7 11 30.06 1018 0.25 0.402336 0 0
5:53 am 05:53 Mostly Cloudy with Fog 38 3.3 37 2.8 97 97 ESE 7 11 30 1016 0.25 0.402336 0 0
6:53 am 06:53 Mostly Cloudy with Fog 38 3.3 38 3.3 100 100 Calm 30 1016 0 0 0 0
7:53 am 07:53 Mostly Cloudy with Fog 37 2.8 37 2.8 100 100 Calm 30.06 1018 0 0 0 0
8:53 am 08:53 Mostly Cloudy with Fog 39 3.9 39 3.9 100 100 Calm 30.03 1017 0.25 0.402336 0 0
9:41 am 09:41 Cloudy with Fog 40 4.4 40 4.4 100 100 Calm 30.06 1018 0.5 0.804672 0 0
9:53 am 09:53 Cloudy with Mist and Fog 42 5.6 42 5.6 100 100 VRB 3 6 30.03 1017 1 1.609344 0 0
10:08 am 10:08 Mostly Cloudy with Mist and Fog 43 6 43 6 100 100 WNW 3 6 30.06 1018 3 4.828032 0 0
10:30 am 10:30 Mostly Sunny 45 7.2 43 6.1 93 93 NW 3 6 30.03 1017 7 11.265408 0 0
10:53 am 10:53 Sunny 50 10 44 6.7 80 80 VRB 3 6 30 1016 10 16.09344 0 0
11:53 am 11:53 Sunny 59 15 43 6.1 56 56 W 7 11 29.97 1015 10 16.09344 0 0
12:53 pm 12:53 Sunny 66 18.9 39 3.9 37 37 WNW 12 19 29.91 1013 10 16.09344 0 0
1:53 pm 13:53 Mostly Sunny 69 20.6 33 0.6 26 26 W 17 28 29.88 1012 10 16.09344 0 0
2:53 pm 14:53 Sunny 70 21.1 32 0 25 25 W 21 33 29.88 1012 10 16.09344 0 0
3:53 pm 15:53 Mostly Sunny 69 20.6 30 -1.1 23 23 W 20 31 29.85 1011 10 16.09344 0 0
4:53 pm 16:53 Partly Cloudy 71 21.7 31 -0.6 23 23 WNW 12 19 29.85 1011 10 16.09344 0 0
5:53 pm 17:53 Sunny 67 19.4 32 0 27 27 WNW 10 17 29.85 1011 10 16.09344 0 0
6:53 pm 18:53 Sunny 62 16.7 33 0.6 34 34 W 5 7 29.88 1012 10 16.09344 0 0
7:53 pm 19:53 Cloudy 57 13.9 36 2.2 45 45 Calm 29.91 1013 10 16.09344 0 0
8:53 pm 20:53 Cloudy 54 12.2 36 2.2 51 51 Calm 29.91 1013 10 16.09344 0 0
9:53 pm 21:53 Mostly Cloudy 47 8.3 37 2.8 69 69 E 6 9 29.94 1014 10 16.09344 0 0
10:53 pm 22:53 Mostly Cloudy 46 7.8 37 2.8 71 71 N 7 11 29.91 1013 10 16.09344 0 0
11:53 pm 23:53 Partly Cloudy 43 6.1 36 2.2 76 76 E 5 7 29.88 1012 10 16.09344 0 0

Powered by AerisWeather